• In Hungary
  • List of Countries
  • For 7 days
  • Water Temperature
  • Satellite Maps
  • Weather Map
  • News
  • Weather Widgets
  • user-avatar
    Login

    Hourly Weather Murzasichle

    Today, 20 August, Monday

    Time Temperature Precipitation Wind Pressure Humidity
    00:00 +16°C° 0 mm 1 mps 691 mmHg 81%
    01:00 +16°C° 0 mm 1 mps 691 mmHg 81%
    02:00 +15°C° 0 mm 1 mps 691 mmHg 80%
    03:00 +15°C° 0 mm 1 mps 690 mmHg 80%
    04:00 +15°C° 0 mm 1 mps 690 mmHg 79%
    05:00 +18°C° 0 mm 1 mps 690 mmHg 76%
    06:00 +19°C° 0 mm 1 mps 691 mmHg 72%
    07:00 +21°C° 0 mm 1 mps 691 mmHg 68%
    08:00 +23°C° 0 mm 1 mps 691 mmHg 61%
    09:00 +25°C° 0 mm 1 mps 692 mmHg 54%
    10:00 +27°C° 0 mm 1 mps 692 mmHg 47%
    11:00 +27°C° 0.1 mm 1 mps 692 mmHg 48%
    12:00 +26°C° 0.1 mm 1 mps 692 mmHg 48%
    13:00 +26°C° 0.1 mm 1 mps 691 mmHg 49%
    14:00 +26°C° 0.1 mm 1 mps 691 mmHg 49%
    15:00 +26°C° 0.1 mm 1 mps 691 mmHg 50%
    16:00 +26°C° 0.1 mm 1 mps 690 mmHg 51%
    17:00 +24°C° 0 mm 1 mps 690 mmHg 56%
    18:00 +22°C° 0 mm 1 mps 690 mmHg 62%
    19:00 +20°C° 0 mm 1 mps 689 mmHg 68%
    20:00 +20°C° 0.1 mm 1 mps 689 mmHg 70%
    21:00 +19°C° 0.1 mm 1 mps 689 mmHg 71%
    22:00 +18°C° 0.1 mm 1 mps 690 mmHg 73%
    23:00 +18°C° 0.1 mm 1 mps 690 mmHg 75%

    Tomorrow, 21 August, Tuesday

    Time Temperature Precipitation Wind Pressure Humidity
    00:00 +18°C° 0.1 mm 1 mps 690 mmHg 77%
    01:00 +16°C° 0.1 mm 1 mps 690 mmHg 79%
    02:00 +16°C° 0 mm 1 mps 690 mmHg 82%
    03:00 +15°C° 0 mm 1 mps 690 mmHg 85%
    04:00 +15°C° 0 mm 1 mps 690 mmHg 88%
    05:00 +16°C° 0 mm 1 mps 690 mmHg 85%
    06:00 +18°C° 0 mm 1 mps 691 mmHg 82%
    07:00 +20°C° 0 mm 1 mps 691 mmHg 79%
    08:00 +21°C° 0.1 mm 1 mps 692 mmHg 75%
    09:00 +21°C° 0.1 mm 2 mps 692 mmHg 71%
    10:00 +23°C° 0.1 mm 2 mps 692 mmHg 67%
    11:00 +23°C° 0.2 mm 2 mps 692 mmHg 65%
    12:00 +23°C° 0.2 mm 2 mps 692 mmHg 63%
    13:00 +24°C° 0.2 mm 2 mps 692 mmHg 62%
    14:00 +23°C° 0.2 mm 2 mps 692 mmHg 63%
    15:00 +23°C° 0.2 mm 2 mps 692 mmHg 65%
    16:00 +23°C° 0.2 mm 2 mps 692 mmHg 66%
    17:00 +20°C° 0 mm 2 mps 692 mmHg 73%
    18:00 +18°C° 0 mm 2 mps 691 mmHg 80%
    19:00 +18°C° 0 mm 1 mps 691 mmHg 87%
    20:00 +16°C° 0 mm 1 mps 691 mmHg 88%
    21:00 +15°C° 0 mm 1 mps 692 mmHg 89%
    22:00 +15°C° 0 mm 1 mps 692 mmHg 90%
    23:00 +14°C° 0 mm 1 mps 692 mmHg 91%

    Day after tomorrow, 22 August, Wednesday

    Time Temperature Precipitation Wind Pressure Humidity
    00:00 +14°C° 0 mm 1 mps 692 mmHg 92%
    01:00 +13°C° 0 mm 1 mps 691 mmHg 92%
    02:00 +13°C° 0 mm 1 mps 691 mmHg 92%
    03:00 +13°C° 0 mm 1 mps 691 mmHg 92%
    04:00 +12°C° 0 mm 1 mps 691 mmHg 92%
    05:00 +14°C° 0 mm 1 mps 692 mmHg 87%
    06:00 +15°C° 0 mm 1 mps 692 mmHg 82%
    07:00 +18°C° 0 mm 1 mps 692 mmHg 77%
    08:00 +20°C° 0 mm 1 mps 693 mmHg 69%
    09:00 +21°C° 0 mm 1 mps 693 mmHg 61%
    10:00 +23°C° 0 mm 1 mps 694 mmHg 53%
    11:00 +24°C° 0 mm 1 mps 693 mmHg 52%
    12:00 +24°C° 0 mm 1 mps 693 mmHg 51%
    13:00 +25°C° 0 mm 1 mps 693 mmHg 50%
    14:00 +25°C° 0 mm 1 mps 693 mmHg 52%
    15:00 +24°C° 0 mm 1 mps 692 mmHg 53%
    16:00 +24°C° 0 mm 1 mps 692 mmHg 55%
    17:00 +22°C° 0 mm 1 mps 692 mmHg 63%
    18:00 +20°C° 0 mm 1 mps 691 mmHg 71%
    19:00 +18°C° 0 mm 1 mps 691 mmHg 79%
    20:00 +16°C° 0 mm 1 mps 691 mmHg 81%
    21:00 +16°C° 0 mm 1 mps 691 mmHg 84%
    22:00 +15°C° 0 mm 1 mps 690 mmHg 86%
    23:00 +15°C° 0 mm 1 mps 690 mmHg 86%

    23 August, Thursday

    Time Temperature Precipitation Wind Pressure Humidity
    00:00 +15°C° 0 mm 1 mps 690 mmHg 86%
    01:00 +15°C° 0 mm 1 mps 690 mmHg 86%
    02:00 +15°C° 0 mm 1 mps 690 mmHg 86%
    03:00 +15°C° 0 mm 1 mps 690 mmHg 86%
    04:00 +15°C° 0 mm 1 mps 690 mmHg 86%
    05:00 +16°C° 0 mm 1 mps 690 mmHg 81%
    06:00 +19°C° 0 mm 1 mps 690 mmHg 76%
    07:00 +21°C° 0 mm 1 mps 690 mmHg 71%
    08:00 +23°C° 0 mm 1 mps 691 mmHg 64%
    09:00 +25°C° 0 mm 1 mps 691 mmHg 56%
    10:00 +27°C° 0 mm 1 mps 691 mmHg 49%
    11:00 +27°C° 0.1 mm 1 mps 691 mmHg 49%
    12:00 +27°C° 0.1 mm 1 mps 691 mmHg 50%
    13:00 +27°C° 0.1 mm 1 mps 690 mmHg 51%
    14:00 +27°C° 0.2 mm 1 mps 690 mmHg 53%
    15:00 +26°C° 0.2 mm 1 mps 690 mmHg 55%
    16:00 +26°C° 0.2 mm 1 mps 689 mmHg 57%
    17:00 +24°C° 0.1 mm 1 mps 689 mmHg 62%
    18:00 +22°C° 0.1 mm 1 mps 688 mmHg 68%
    19:00 +20°C° 0.1 mm 1 mps 688 mmHg 73%
    20:00 +20°C° 0 mm 1 mps 688 mmHg 74%
    21:00 +19°C° 0 mm 1 mps 688 mmHg 75%
    22:00 +18°C° 0 mm 1 mps 687 mmHg 76%
    23:00 +18°C° 0 mm 1 mps 687 mmHg 76%

    24 August, Friday

    Time Temperature Precipitation Wind Pressure Humidity
    00:00 +18°C° 0 mm 1 mps 687 mmHg 76%
    01:00 +16°C° 0 mm 1 mps 687 mmHg 76%
    02:00 +16°C° 0 mm 1 mps 687 mmHg 75%
    03:00 +16°C° 0 mm 1 mps 686 mmHg 75%
    04:00 +16°C° 0 mm 2 mps 686 mmHg 75%
    05:00 +17°C° 0 mm 2 mps 686 mmHg 73%
    06:00 +19°C° 0 mm 2 mps 687 mmHg 70%
    07:00 +20°C° 0 mm 2 mps 687 mmHg 68%
    08:00 +23°C° 0.1 mm 2 mps 687 mmHg 63%
    09:00 +24°C° 0.1 mm 2 mps 687 mmHg 57%
    10:00 +26°C° 0.1 mm 3 mps 688 mmHg 52%
    11:00 +26°C° 0.4 mm 2 mps 687 mmHg 52%
    12:00 +26°C° 0.4 mm 2 mps 687 mmHg 53%
    13:00 +26°C° 0.4 mm 2 mps 687 mmHg 54%
    14:00 +26°C° 0.2 mm 2 mps 687 mmHg 56%
    15:00 +25°C° 0.2 mm 2 mps 686 mmHg 57%
    16:00 +25°C° 0.2 mm 2 mps 686 mmHg 59%
    17:00 +23°C° 0.3 mm 2 mps 686 mmHg 64%
    18:00 +21°C° 0.3 mm 2 mps 685 mmHg 69%
    19:00 +20°C° 0.3 mm 1 mps 685 mmHg 74%
    20:00 +19°C° 0.3 mm 1 mps 685 mmHg 76%
    21:00 +19°C° 0.3 mm 1 mps 684 mmHg 78%
    22:00 +18°C° 0.3 mm 1 mps 684 mmHg 81%
    23:00 +18°C° 0.3 mm 1 mps 684 mmHg 82%

    25 August, Saturday

    Time Temperature Precipitation Wind Pressure Humidity
    00:00 +16°C° 0.3 mm 1 mps 684 mmHg 83%
    01:00 +16°C° 0.3 mm 1 mps 684 mmHg 85%
    02:00 +16°C° 0.6 mm 1 mps 684 mmHg 87%
    03:00 +15°C° 0.6 mm 1 mps 684 mmHg 90%
    04:00 +15°C° 0.6 mm 1 mps 684 mmHg 93%
    05:00 +16°C° 0.5 mm 1 mps 684 mmHg 92%
    06:00 +16°C° 0.5 mm 1 mps 684 mmHg 91%
    07:00 +18°C° 0.5 mm 1 mps 685 mmHg 91%
    08:00 +19°C° 0.4 mm 1 mps 685 mmHg 87%
    09:00 +20°C° 0.4 mm 1 mps 685 mmHg 83%
    10:00 +20°C° 0.4 mm 2 mps 685 mmHg 79%
    11:00 +20°C° 0.6 mm 2 mps 685 mmHg 79%
    12:00 +20°C° 0.6 mm 2 mps 685 mmHg 79%
    13:00 +20°C° 0.6 mm 2 mps 684 mmHg 79%
    14:00 +20°C° 1.4 mm 2 mps 684 mmHg 81%
    15:00 +20°C° 1.4 mm 2 mps 684 mmHg 83%
    16:00 +20°C° 1.4 mm 1 mps 684 mmHg 86%
    17:00 +17°C° 0.9 mm 2 mps 684 mmHg 88%
    18:00 +16°C° 0.9 mm 2 mps 684 mmHg 90%
    19:00 +14°C° 0.9 mm 2 mps 684 mmHg 92%
    20:00 +13°C° 0.1 mm 2 mps 684 mmHg 93%
    21:00 +12°C° 0.1 mm 2 mps 684 mmHg 94%
    22:00 +12°C° 0.1 mm 2 mps 684 mmHg 95%
    23:00 +10°C° 0.2 mm 2 mps 684 mmHg 95%
    Show more